Location: Zagreb
(45.8000°N, 16.0000°E)
Time: 12:21:32
(UTC+01:00)

Vanguard 1 Rocket - Pass Details

Date: 02 October 2020
Orbit: 656 x 4221 km, 34.3° (Epoch: 28 October)

Event Time Altitude Azimuth Distance (km) Brightness Sun altitude
Rises 15:56:52 0° 199° (SSW) 4,118 11.6 24.7°
Reaches altitude 10° 15:59:56 10° 184° (S) 3,542 11.1 24.2°
Maximum altitude 16:06:59 23° 135° (SE) 3,478 10.4 23.2°
Drops below altitude 10° 16:17:50 10° 91° (E) 5,703 11.0 21.6°
Sets 16:24:45 0° 81° (E) 7,373 11.5 20.6°
